Location: Newark
(52.3500°N, 175.9667°E)
Time: 09:54:56
(UTC+00:00)

Transit 4A - Pass Details

Date: 28 April 2021
Orbit: 870 x 974 km, 66.8° (Epoch: 07 May)

Event Time Altitude Azimuth Distance (km) Brightness Sun altitude
Rises 12:27:04 0° 263° (W) 3,596 10.9 -23.3°
Reaches altitude 10° 12:29:59 10° 274° (W) 2,637 10.3 -23.2°
Maximum altitude 12:35:15 29° 334° (NNW) 1,611 9.7 -23.2°
Drops below altitude 10° 12:40:25 10° 34° (NNE) 2,581 11.1 -23.1°
Sets 12:43:16 0° 45° (NE) 3,508 11.7 -23.0°
